COSMOS 1275 DEB, 42171

Orbit data source: Space-Track

COSMOS 1275 DEB, 42171 is space debris in LEO originally from a launch on Thu, 04 Jun 1981 UTC launched from the Plesetsk Missile And Space Complex (PKMTR). Debris objects in space refer to the collection of defunct objects orbiting the Earth. Examples of debris include non-operational satellites, rocket bodies, and fragments generated from explosions, collisions, or faulty payload assembly.

Loading next visibility...
Identifier
42171, 1981-053SK
Orbit
LEO
Country
Flag of CISCIS
Related business
Manufacturer
Unknown
Mission
Spacecraft
Bus & Motor
Unknown
Mass
Unknown
Launch date (UTC)
1981-06-04 (44 years ago)
Launch vehicle
Unknown
Launch site
Plesetsk Missile And Space Complex (PKMTR)
Object type
Payload
Rocket body
Debris
Shape & HBR
Unknown shape, 0.1 m
Radar Cross Section
Small (<0.1 m²)

Expand to show TLE details & history
Last TLE update: 1 day ago

TLE from 1 day ago
0 COSMOS 1275 DEB
1 42171U 81053SK  25295.07505144  .00005807  00000-0  29313-2 0  9991
2 42171  83.0800  53.6514 0036990 356.7318   3.3613 14.15753282 71620
Epoch: 2025-10-22T01:48Z
TLE epoch observation values (Epoch: 2025-10-22T01:48:04.444Z)
Latitude
-0.00006°
Longitude
-4.12099°
Altitude
816.053 km
Speed
7.459 km/s
True Right ascension
03h 34m 36s
True Declination
0° 00' 00"
Sunlit
Object was in full shadow at epoch
Visualization orbit readout
Latitude
Unknown
Longitude
Unknown
Altitude
Unknown
Speed
Unknown
Apparent Right ascension
Unknown
Apparent Declination
Unknown
Sunlit
N/A
Visualization observer readout
Local Sidereal Time
00:36:25
Azimuth
Unknown
Elevation
Unknown
Doppler factor
Unknown
Orbital elements
Apogee altitude
863.526 km
Perigee altitude
810.15 km
Semi-major axis
7,214.975 km
Eccentricity
0.0037
Inclination
83.08°
RAAN
53.6514°
Arg. of periapsis
356.7318°
True anomaly
3.38627°
Mean anomaly
3.3613°
Eccentric anomaly
3.37377°
Mean motion
3.54153 °/min
Orbital period
101.65 mins
BSTAR
0.0029313
Loading maneuver chart data...
Computing Atmospheric mass density...

Documentation

Showing up to 5 results
|